Location: Brookview Estates
(36.0476°N, 86.6931°W)
Time: 01:36:10
(UTC+00:00)

SKYMED 2 - Pass Details

Date: 30 March 2020
Orbit: 621 x 623 km, 97.9° (Epoch: 26 May)

Event Time Altitude Azimuth Distance (km) Brightness Sun altitude
Rises 11:00:56 0° 165° (SSE) 2,886 7.1 -7.7°
Reaches altitude 10° 11:03:06 10° 165° (SSE) 1,984 6.2 -7.3°
Maximum altitude 11:07:26 85° 77° (ENE) 630 3.7 -6.4°
Drops below altitude 10° 11:11:47 10° 349° (N) 2,000 6.2 -5.5°
Sets 11:13:59 0° 349° (N) 2,910 7.0 -5.1°
